Home > Time Zones > World Clock > Weather > Egypt > Cairo > Past weeks

Flag for Egypt Weather past 2 weeks in Cairo, Egypt

Now
64 °F

Partly sunny.


Feels Like: 64 °F
Forecast: 58 / 73 °F
Wind: 9 mph from Northeast

Location: Cairo Airport

Current Time: Jan 26, 2015 at 12:37:33 PM

Latest Report: Jan 26, 2015 at 12:00 PM


Visibility: N/A

Pressure: 30.09 "Hg

Humidity: 78%

Dew point: 57 °F

Location of CairoLocation

Historic Weather in Cairo — Graph

°F

Cairo temperature yesterday

Maximum temperature yesterday: 70 °F (at 1:30 PM)
Minimum temperature yesterday: 55 °F (at 2:30 AM)
Average temperature yesterday: 62 °F

Past Weeks' High & Low Weather Summary

 TemperatureHumidityPressure
High79 °F (Jan 22, 1:30 PM)100% (Jan 25, 2:30 AM)30.36 "Hg (Jan 25, 2:30 AM)
Low46 °F (Jan 20, 3:30 AM)9% (Jan 23, 3:00 PM)29.92 "Hg (Jan 23, 1:30 PM)
Average59 °F54%30.13 "Hg
* Reported Jan 11 11:00 AM — Jan 26 11:30 AM, Cairo, Weather by CustomWeather, © 2014

Note: Actual official high and low records may vary slightly from our data, if they occured in-between our weather recording intervals... More about our weather records

Advertising

Cairo weather history for previous 24 hours

 ConditionsComfort  
Time TempWeatherWind HumidityBarometerVisibility
11:30 AM
Jan 26
64 °FPartly sunny.10 mph78%30.12 "HgN/A
11:00 AM63 °FPartly sunny.10 mph88%30.12 "HgN/A
10:30 AM63 °FPartly sunny.10 mph88%30.12 "Hg4 mi
10:00 AM63 °FPartly sunny.8 mph88%30.15 "Hg4 mi
9:30 AM61 °FClear.8 mph94%30.15 "Hg4 mi
9:00 AM59 °FClear.6 mph100%30.12 "Hg4 mi
8:30 AM59 °FFog.6 mph100%30.12 "Hg2 mi
8:00 AM57 °FFog.6 mph94%30.12 "Hg2 mi
7:30 AM57 °FFog.6 mph100%30.12 "Hg1 mi
7:00 AM57 °FFog.6 mph100%30.09 "Hg1 mi
6:30 AM57 °FFog.6 mph100%30.09 "Hg1 mi
6:00 AM57 °FFog.6 mph100%30.09 "Hg1 mi
5:30 AM59 °FFog.5 mph100%30.07 "Hg2 mi
5:00 AM59 °FFog.6 mph100%30.07 "Hg2 mi
4:30 AM59 °FFog.8 mph100%30.04 "Hg2 mi
4:00 AM59 °FFog.6 mph100%30.04 "Hg2 mi
3:30 AM59 °FFog.7 mph100%30.07 "Hg2 mi
3:00 AM59 °FFog.7 mph100%30.04 "Hg2 mi
2:30 AM59 °FClear.7 mph100%30.07 "Hg4 mi
2:00 AM59 °FClear.6 mph100%30.04 "Hg4 mi
1:30 AM59 °FClear.7 mph100%30.07 "Hg4 mi
1:00 AM59 °FCool.18 mph100%30.04 "HgN/A
12:30 AM61 °FClear.7 mph83%30.07 "Hg10 mi
12:00 AM61 °FClear.7 mph83%30.07 "Hg10 mi
11:30 PM
Jan 25
61 °FClear.7 mph77%30.07 "Hg10 mi
11:00 PM61 °FClear.7 mph77%30.07 "Hg10 mi
10:30 PM61 °FClear.7 mph77%30.07 "Hg10 mi
10:00 PM61 °FClear.7 mph68%30.07 "Hg10 mi
9:30 PM61 °FClear.6 mph55%30.07 "Hg10 mi
9:00 PM63 °FClear.6 mph52%30.07 "Hg10 mi
8:30 PM63 °FClear.7 mph56%30.04 "Hg10 mi
8:00 PM63 °FClear.7 mph59%30.04 "Hg10 mi
7:30 PM64 °FClear.7 mph56%30.04 "Hg10 mi
7:00 PM64 °FClear.7 mph56%30.04 "Hg10 mi
6:30 PM64 °FClear.7 mph56%30.04 "Hg10 mi
6:00 PM66 °FClear.7 mph52%30.04 "Hg10 mi
5:30 PM70 °FClear.9 mph50%30.01 "Hg10 mi
5:00 PM70 °FSunny.9 mph50%30.01 "Hg10 mi
4:30 PM68 °FSunny.8 mph43%30.01 "Hg10 mi
4:00 PM70 °FSunny.14 mph46%30.01 "Hg10 mi
3:30 PM70 °FSunny.8 mph50%30.01 "Hg10 mi
3:00 PM70 °FSunny.8 mph50%30.01 "Hg10 mi
2:30 PM70 °FClear.8 mph50%30.01 "Hg4 mi
2:00 PM70 °FClear.8 mph50%30.01 "Hg4 mi
1:30 PM70 °FClear.8 mph43%30.01 "Hg4 mi
1:00 PM68 °FClear.8 mph43%30.01 "Hg4 mi
12:30 PM68 °FHaze.6 mph53%30.04 "Hg3 mi
12:00 PM66 °FHaze.6 mph64%30.04 "Hg3 mi
Weather by CustomWeather, © 2014

See weather overviewHow to use our weather pages